Regional Weather Roundup
Issued by NWS Cleveland, OH

Home | Current Version | Previous Version | Text Only | Print | Product List | Glossary Off
Versions: 1 2 3 4 5 6 7 8 9 10 11 12 13 14 15 16 17 18 19 20 21 22 23 24 25 26 27 28 29 30 31 32 33 34 35 36 37 38 39 40 41 42 43 44 45 46 47 48 49 50

635
ASUS41 KCLE 261802
RWRCLE
OHIO REGIONAL WEATHER ROUNDUP
NATIONAL WEATHER SERVICE CLEVELAND, OH
200 PM EDT TUE JUL 26 2016

NOTE: "FAIR" INDICATES FEW OR NO CLOUDS BELOW 12,000 FEET WITH NO
SIGNIFICANT WEATHER AND/OR OBSTRUCTIONS TO VISIBILITY.

OHZ001>008-015>018-024>027-034-035-043-044-261900-
   NORTHWEST OHIO

CITY           SKY/WX    TMP DP  RH WIND       PRES   REMARKS
DEFIANCE       CLOUDY    86  62  44 CALM      30.05F
FINDLAY        PTSUNNY   88  62  41 VRB3      30.04F
TOLEDO EXPRESS SUNNY     83  60  45 E8        30.05F
TOLEDO EXEC    SUNNY     84  62  47 VRB6      30.06F
LIMA           CLOUDY    83  65  54 SE5       30.06S
$$

OHZ009>014-019>023-028>033-038-089-261900-
   NORTHEAST OHIO

CITY           SKY/WX    TMP DP  RH WIND       PRES   REMARKS
CLE-HOPKINS    MOSUNNY   85  54  34 N10       30.08F
CLE-LAKEFRONT  MOSUNNY   79  63  57 N12       30.05F
CUY CO. ARPT   MOSUNNY   82  61  47 NW15      30.07F
LORAIN-ELYRIA  SUNNY     82  60  47 NE8       30.07S
ASHTABULA      SUNNY     80  60  50 VRB3      30.07F
AKRON-CANTON   PTSUNNY   85  62  46 W7        30.06F
WOOSTER        MOSUNNY   83  63  50 N5        30.07F
MANSFIELD      MOSUNNY   86  63  45 VRB5      30.06F
YOUNGSTOWN     PTSUNNY   82  59  45 VRB7      30.06F
$$

OHZ042-051>053-060>062-070>072-077>081-261900-
  SOUTHWEST OHIO

CITY           SKY/WX    TMP DP  RH WIND       PRES   REMARKS
CINC-COVINGTON TSTM      73  73 100 CALM      30.05R FOG
CINC-LUNKEN    TSTM      74  74 100 SW7       30.04R FOG
HAMILTON       RAIN      76  72  87 N7        30.04F FOG
DAYTON         CLOUDY    81  67  62 SW6       30.05F
WRIGHT-PAT AFB CLOUDY    82  69  63 VRB2      30.04S
DAYTON GENERAL LGT RAIN  77  69  76 W5        30.05S
WILMINGTON     LGT RAIN  81  72  74 N8        30.04S
$$

OHZ036-037-039>041-045>050-054>059-063>069-073>076-082>088-261900-
  CENTRAL AND SOUTHEAST OHIO

CITY           SKY/WX    TMP DP  RH WIND       PRES   REMARKS
COLUMBUS       CLOUDY    87  65  47 VRB3      30.02F
OSU AIRPORT    CLOUDY    87  68  52 CALM      30.03F HX  90
BOLTON FIELD   SUNNY     84  70  61 S6        30.04F
RICKENBACK AFB NOT AVBL
NEWARK         CLOUDY    88  65  46 VRB3      30.03F HX  90
MARION         MOSUNNY   86  62  44 CALM      30.05F
LANCASTER      CLOUDY    84  72  67 NE3       30.04F
ZANESVILLE     CLOUDY    89  67  47 SW3       30.03F HX  92
NEW PHILLY     PTSUNNY   91  61  36 MISG      30.04F HX  91
$$




USA.gov is the U.S. government's official web portal to all federal, state and local government web resources and services.